SB KEPS @ AMSAT $ORB10098.O Orbital Elements 10098.OSCAR
HR AMSAT ORBITAL ELEMENTS FOR OSCAR SATELLITES FROM WA5QGD FORT WORTH,TX April 8, 2010 Send Subscribe/unsubscribe to KEPS at http://www.amsat.org/mailman/listinfo/keps BID: ORB10098.O TO ALL RADIO AMATEURS BT
Satellite: AO-07 Catalog number: 07530 Epoch time: 10097.57415736 Element set: 0748 Inclination: 101.4054 deg RA of node: 116.1729 deg Eccentricity: 0.0012186 Arg of perigee: 052.3575 deg Mean anomaly: 307.8599 deg Mean motion: 12.53578152 rev/day Decay rate: -2.7e-07 rev/day^2 Epoch rev: 61960 Checksum: 306
Satellite: FO-29 Catalog number: 24278 Epoch time: 10098.58889677 Element set: 282 Inclination: 098.5193 deg RA of node: 297.3303 deg Eccentricity: 0.0350239 Arg of perigee: 304.5655 deg Mean anomaly: 052.2893 deg Mean motion: 13.52948860 rev/day Decay rate: .00000000 rev/day^2 Epoch rev: 67369 Checksum: 343
Satellite: SO-33 Catalog number: 25509 Epoch time: 10098.50542532 Element set: 686 Inclination: 031.4313 deg RA of node: 182.5558 deg Eccentricity: 0.0353439 Arg of perigee: 040.6370 deg Mean anomaly: 322.0078 deg Mean motion: 14.28301141 rev/day Decay rate: 3.35e-06 rev/day^2 Epoch rev: 59808 Checksum: 285
Satellite: RS-22 Catalog number: 27939 Epoch time: 10098.65551643 Element set: 71 Inclination: 097.9025 deg RA of node: 327.0545 deg Eccentricity: 0.0012528 Arg of perigee: 281.3529 deg Mean anomaly: 078.6273 deg Mean motion: 14.63402451 rev/day Decay rate: 3.26e-06 rev/day^2 Epoch rev: 34878 Checksum: 315
Satellite: VO-52 Catalog number: 28650 Epoch time: 10097.76753500 Element set: 474 Inclination: 097.6990 deg RA of node: 153.9255 deg Eccentricity: 0.0027663 Arg of perigee: 144.6314 deg Mean anomaly: 215.6759 deg Mean motion: 14.81716485 rev/day Decay rate: 2.05e-06 rev/day^2 Epoch rev: 26626 Checksum: 329
Satellite: SO-67 Catalog number: 35870 Epoch time: 10098.73290958 Element set: 613 Inclination: 097.3382 deg RA of node: 149.6334 deg Eccentricity: 0.0007659 Arg of perigee: 307.6503 deg Mean anomaly: 185.8721 deg Mean motion: 15.22448783 rev/day Decay rate: 1.605e-05 rev/day^2 Epoch rev: 3089 Checksum: 337
Satellite: HO-68 Catalog number: 36122 Epoch time: 10098.62471179 Element set: 195 Inclination: 100.4756 deg RA of node: 159.7407 deg Eccentricity: 0.0007736 Arg of perigee: 132.6317 deg Mean anomaly: 227.5449 deg Mean motion: 13.16280285 rev/day Decay rate: -4.5e-07 rev/day^2 Epoch rev: 1506 Checksum: 302
/EX SB KEPS @ AMSAT $ORB10098.D Orbital Elements 10098.MICROS
HR AMSAT ORBITAL ELEMENTS FOR THE MICROSATS FROM WA5QGD FORT WORTH,TX April 8, 2010 Send Subscribe/unsubscribe to KEPS at http://www.amsat.org/mailman/listinfo/keps BID: ORB10098.D TO ALL RADIO AMATEURS BT
Satellite: UO-11 Catalog number: 14781 Epoch time: 10097.15895957 Element set: 0215 Inclination: 098.0617 deg RA of node: 148.6573 deg Eccentricity: 0.0010021 Arg of perigee: 104.9979 deg Mean anomaly: 255.2342 deg Mean motion: 14.79785317 rev/day Decay rate: -6.4e-07 rev/day^2 Epoch rev: 40130 Checksum: 310
Satellite: AO-16 Catalog number: 20439 Epoch time: 10097.75044309 Element set: 864 Inclination: 098.3251 deg RA of node: 058.4552 deg Eccentricity: 0.0011502 Arg of perigee: 020.3776 deg Mean anomaly: 339.7865 deg Mean motion: 14.31855458 rev/day Decay rate: 4.0e-07 rev/day^2 Epoch rev: 5530 Checksum: 296
Satellite: LO-19 Catalog number: 20442 Epoch time: 10097.48002811 Element set: 0777 Inclination: 098.2861 deg RA of node: 064.2854 deg Eccentricity: 0.0012342 Arg of perigee: 016.3791 deg Mean anomaly: 343.7773 deg Mean motion: 14.32088193 rev/day Decay rate: 1.74e-06 rev/day^2 Epoch rev: 05543 Checksum: 298
Satellite: AO-27 Catalog number: 22825 Epoch time: 10097.79859759 Element set: 498 Inclination: 098.4799 deg RA of node: 047.5926 deg Eccentricity: 0.0009147 Arg of perigee: 113.6939 deg Mean anomaly: 246.5210 deg Mean motion: 14.29292875 rev/day Decay rate: 9.5e-07 rev/day^2 Epoch rev: 86199 Checksum: 384
Satellite: IO-26 Catalog number: 22826 Epoch time: 10098.78653602 Element set: 236 Inclination: 098.4730 deg RA of node: 049.1817 deg Eccentricity: 0.0009780 Arg of perigee: 106.1976 deg Mean anomaly: 254.0286 deg Mean motion: 14.29547999 rev/day Decay rate: 5.6e-07 rev/day^2 Epoch rev: 86224 Checksum: 339
Satellite: GO-32 Catalog number: 25397 Epoch time: 10098.56879918 Element set: 155 Inclination: 098.3150 deg RA of node: 109.8510 deg Eccentricity: 0.0002212 Arg of perigee: 098.8862 deg Mean anomaly: 261.2575 deg Mean motion: 14.23175288 rev/day Decay rate: 7.0e-07 rev/day^2 Epoch rev: 61014 Checksum: 310
Satellite: NO-44 Catalog number: 26931 Epoch time: 10097.82361727 Element set: 0429 Inclination: 067.0533 deg RA of node: 025.2596 deg Eccentricity: 0.0006149 Arg of perigee: 264.6737 deg Mean anomaly: 095.3664 deg Mean motion: 14.29589799 rev/day Decay rate: -6.1e-07 rev/day^2 Epoch rev: 44469 Checksum: 347
Satellite: SO-50 Catalog number: 27607 Epoch time: 10097.87397247 Element set: 144 Inclination: 064.5579 deg RA of node: 210.0810 deg Eccentricity: 0.0035459 Arg of perigee: 110.0216 deg Mean anomaly: 250.4730 deg Mean motion: 14.71523327 rev/day Decay rate: 2.70e-06 rev/day^2 Epoch rev: 39203 Checksum: 277
Satellite: CO-55 Catalog number: 27844 Epoch time: 10098.58340060 Element set: 820 Inclination: 098.7109 deg RA of node: 108.5542 deg Eccentricity: 0.0010534 Arg of perigee: 016.6131 deg Mean anomaly: 343.5393 deg Mean motion: 14.20696630 rev/day Decay rate: 5.2e-07 rev/day^2 Epoch rev: 35120 Checksum: 275
Satellite: CO-57 Catalog number: 27848 Epoch time: 10098.53241069 Element set: 770 Inclination: 098.7154 deg RA of node: 107.5860 deg Eccentricity: 0.0010322 Arg of perigee: 020.6497 deg Mean anomaly: 339.5094 deg Mean motion: 14.20490700 rev/day Decay rate: 4.7e-07 rev/day^2 Epoch rev: 35115 Checksum: 297
Satellite: AO-51 Catalog number: 28375 Epoch time: 10098.55758014 Element set: 646 Inclination: 098.0604 deg RA of node: 096.0274 deg Eccentricity: 0.0084019 Arg of perigee: 309.5038 deg Mean anomaly: 049.8746 deg Mean motion: 14.40678133 rev/day Decay rate: 4.8e-07 rev/day^2 Epoch rev: 30348 Checksum: 321
Satellite: GENESAT1 Catalog number: 29655 Epoch time: 10098.48600024 Element set: 4 Inclination: 040.0171 deg RA of node: 119.6357 deg Eccentricity: 0.0007193 Arg of perigee: 187.4833 deg Mean anomaly: 172.5879 deg Mean motion: 15.80823222 rev/day Decay rate: 1.09210e-03 rev/day^2 Epoch rev: 18891 Checksum: 291
Satellite: CP3 Catalog number: 31129 Epoch time: 10098.62756236 Element set: 548 Inclination: 097.9475 deg RA of node: 141.8968 deg Eccentricity: 0.0103695 Arg of perigee: 089.3027 deg Mean anomaly: 272.0040 deg Mean motion: 14.52234529 rev/day Decay rate: 1.86e-06 rev/day^2 Epoch rev: 15776 Checksum: 324
Satellite: CO-65 Catalog number: 32785 Epoch time: 10098.67251598 Element set: 649 Inclination: 097.9007 deg RA of node: 164.5412 deg Eccentricity: 0.0015568 Arg of perigee: 147.0610 deg Mean anomaly: 213.1606 deg Mean motion: 14.81622554 rev/day Decay rate: 4.57e-06 rev/day^2 Epoch rev: 10519 Checksum: 314
Satellite: KKS-1 Catalog number: 33493 Epoch time: 10098.73085697 Element set: 369 Inclination: 098.0761 deg RA of node: 217.6649 deg Eccentricity: 0.0020277 Arg of perigee: 009.8193 deg Mean anomaly: 350.3323 deg Mean motion: 14.80931375 rev/day Decay rate: 8.64e-06 rev/day^2 Epoch rev: 6520 Checksum: 319
Satellite: SOHLA-1 Catalog number: 33496 Epoch time: 10098.84360693 Element set: 72 Inclination: 098.0491 deg RA of node: 208.8422 deg Eccentricity: 0.0007723 Arg of perigee: 067.9032 deg Mean anomaly: 292.2994 deg Mean motion: 14.69483749 rev/day Decay rate: 2.56e-06 rev/day^2 Epoch rev: 6469 Checksum: 335
/EX SB KEPS @ AMSAT $ORB10098.W Orbital Elements 10098.WEATHER
HR AMSAT ORBITAL ELEMENTS FOR WEATHER SATELLITES FROM WA5QGD FORT WORTH,TX April 8, 2010 Send Subscribe/unsubscribe to KEPS at http://www.amsat.org/mailman/listinfo/keps BID: ORB10098.W TO ALL RADIO AMATEURS BT
Satellite: NOAA-10 Catalog number: 16969 Epoch time: 10097.63593151 Element set: 0019 Inclination: 098.6643 deg RA of node: 127.2470 deg Eccentricity: 0.0013103 Arg of perigee: 061.1904 deg Mean anomaly: 299.0593 deg Mean motion: 14.27411211 rev/day Decay rate: -1.04e-06 rev/day^2 Epoch rev: 22551 Checksum: 272
Satellite: NOAA-11 Catalog number: 19531 Epoch time: 10097.80844314 Element set: 0034 Inclination: 098.7670 deg RA of node: 188.0311 deg Eccentricity: 0.0011714 Arg of perigee: 353.3990 deg Mean anomaly: 006.7038 deg Mean motion: 14.14920426 rev/day Decay rate: 5.7e-07 rev/day^2 Epoch rev: 11118 Checksum: 274
Satellite: NOAA-12 Catalog number: 21263 Epoch time: 10097.95654058 Element set: 0520 Inclination: 098.7675 deg RA of node: 111.1195 deg Eccentricity: 0.0012622 Arg of perigee: 015.1903 deg Mean anomaly: 344.9666 deg Mean motion: 14.25626398 rev/day Decay rate: 2.2e-07 rev/day^2 Epoch rev: 98239 Checksum: 306
Satellite: MET-3/5 Catalog number: 21655 Epoch time: 10098.44078953 Element set: 781 Inclination: 082.5614 deg RA of node: 357.9154 deg Eccentricity: 0.0013715 Arg of perigee: 158.0478 deg Mean anomaly: 202.1240 deg Mean motion: 13.17024819 rev/day Decay rate: 5.1e-07 rev/day^2 Epoch rev: 89649 Checksum: 311
Satellite: MET-2/21 Catalog number: 22782 Epoch time: 10097.64111030 Element set: 0743 Inclination: 082.5465 deg RA of node: 308.4202 deg Eccentricity: 0.0020883 Arg of perigee: 239.4679 deg Mean anomaly: 120.4403 deg Mean motion: 13.83642662 rev/day Decay rate: -4.9e-07 rev/day^2 Epoch rev: 83832 Checksum: 287
Satellite: OKEAN-4 Catalog number: 23317 Epoch time: 10098.68127580 Element set: 199 Inclination: 082.5391 deg RA of node: 058.7280 deg Eccentricity: 0.0023883 Arg of perigee: 109.0696 deg Mean anomaly: 251.3102 deg Mean motion: 14.82795823 rev/day Decay rate: 6.24e-06 rev/day^2 Epoch rev: 83615 Checksum: 315
